Helicity
7 9 16 25 20 23 27 35 43 41 37 33 31 32 29 36 31 36 61 56 51 48 40 34 27 44 51 81 89 90 103 91 99 92 143 108 108 140 131 121 109 93 106 100 61
17 21 22 27 28 21 20 30 38 41 41 37 30 35 34 45 42 68 79 67 49 53 44 52 49 53 66 79 81 88 102 132 114 111 106 68 81 96 93 92 81 75 71 81 69
21 33 20 22 28 23 25 26 31 40 49 49 41 38 33 22 24 97 45 32 35 46 43 45 37 46 69 72 83 79 101 92 94 104 101 77 79 103 86 68 94 103 76 89 85
11 25 28 26 21 17 16 18 24 33 42 46 42 41 40 30 106 73 67 50 57 56 55 68 65 76 83 84 64 59 72 79 80 89 93 81 106 85 74 120 143 101 64 42 48
26 24 36 24 22 21 22 23 28 32 35 41 47 47 36 46 118 102 85 55 47 43 100 90 132 109 113 88 63 59 54 63 94 114 85 97 71 82 77 138 140 104 78 67 52
38 37 48 42 29 24 29 27 30 30 36 45 57 51 47 61 115 86 61 51 87 65 79 66 76 61 82 70 68 71 69 104 78 77 92 71 85 118 109 140 122 104 101 86 57
57 41 54 53 43 40 35 31 35 33 40 70 85 81 66 95 101 84 81 88 70 60 66 51 26 14 22 7 21 75 135 191 62 63 87 77 78 72 146 144 106 116 103 74 47
91 60 69 58 50 45 45 31 43 38 49 94 116 74 90 97 64 91 91 100 81 77 45 44 60 47 87 81 91 125 154 146 46 70 80 74 53 80 120 98 108 113 91 63 35
79 87 103 82 62 57 52 44 35 69 69 108 85 67 92 77 81 70 63 76 71 114 125 99 94 93 61 67 112 137 142 130 7 48 82 45 48 81 87 110 116 93 78 39 32
76 96 104 80 83 80 64 51 60 88 89 66 75 37 98 111 87 75 65 71 83 102 131 136 134 137 111 103 152 152 181 60 24 41 45 34 37 68 74 107 117 85 59 44 49
113 60 101 110 127 120 64 92 57 60 85 85 124 99 92 43 49 47 45 59 83 114 126 141 157 179 187 158 160 108 50 34 24 46 42 6 51 52 91 104 102 63 59 84 56
95 68 58 162 138 133 96 111 115 126 55 97 95 79 47 32 25 35 37 44 42 21 59 88 125 157 158 103 41 41 84 4 7 28 -36 12 23 47 90 113 75 68 75 108 44
65 59 56 227 107 116 142 121 139 136 83 92 83 53 37 20 35 55 53 72 58 27 26 -2 112 61 53 57 88 47 30 16 -2 -5 -17 10 41 123 131 58 59 85 90 72 24
53 35 121 164 119 149 176 170 229 157 108 78 59 38 17 29 22 71 60 73 88 52 65 67 62 100 85 96 40 38 16 36 -1 -38 -22 47 63 126 121 102 86 78 55 27 13
63 48 174 124 130 140 89 178 79 80 116 67 54 22 18 18 75 85 60 68 65 88 88 91 111 109 92 88 34 57 39 26 -10 -18 23 58 55 134 125 74 70 58 10 1 50
115 176 150 98 113 75 101 109 21 230 196 42 52 61 14 64 75 59 54 72 84 68 129 132 94 124 114 18 32 32 -4 3 13 36 27 58 41 123 100 76 73 36 1 -11 95
84 156 102 113 97 60 -8 52 55 77 35 36 29 29 30 50 56 57 66 58 70 45 64 122 105 111 58 -0 47 5 17 42 4 27 50 68 41 107 90 87 94 47 -5 19 40
85 86 127 154 139 33 68 94 29 133 13 56 47 44 27 81 69 42 42 41 60 59 65 59 28 53 64 83 56 34 5 26 32 40 53 62 56 121 75 101 103 52 45 37 5
37 59 81 102 124 92 106 128 163 21 13 50 46 26 69 64 52 26 24 48 55 44 46 53 55 59 75 57 24 37 20 28 37 27 32 61 99 121 86 112 60 -1 27 30 68
50 66 78 108 91 109 140 112 104 64 49 60 51 59 67 61 48 22 26 61 50 57 81 82 44 52 50 28 16 20 23 -7 15 7 11 82 74 119 38 47 9 -17 4 44 101
58 70 72 46 72 161 131 113 102 96 82 63 70 72 60 29 11 -1 48 77 62 68 90 86 57 52 52 40 82 13 6 16 26 9 19 43 105 133 74 61 23 -1 -9 47 115
80 71 78 38 79 86 83 66 67 45 60 62 81 98 46 2 -8 3 67 72 89 86 78 92 58 34 46 42 49 -16 6 11 1 24 53 78 96 129 83 55 22 5 26 32 54
98 101 89 75 73 86 51 59 68 59 37 47 47 36 13 -8 -17 22 77 80 88 67 84 86 39 16 31 30 10 10 28 44 50 39 51 49 127 126 96 71 15 -10 26 27 71
116 89 99 104 93 81 79 58 42 42 57 47 61 48 23 -5 59 33 76 73 88 81 108 96 60 28 19 17 4 28 32 45 40 32 85 74 99 111 95 75 -8 -36 25 42 69
123 95 106 104 69 94 86 53 73 74 50 50 37 6 20 9 16 62 101 109 81 81 102 79 19 5 10 32 21 25 45 88 105 71 53 80 98 73 89 64 3 -12 41 45 64
141 119 116 105 100 85 64 44 60 42 37 24 20 68 18 47 40 18 65 65 52 85 71 63 19 7 -10 7 7 22 37 105 91 76 90 91 79 101 83 53 10 -32 25 47 81
175 147 130 129 97 87 58 37 28 -3 13 20 2 21 37 35 72 55 100 101 80 63 96 54 35 14 3 12 22 67 44 122 31 45 62 56 82 104 88 62 23 -36 8 50 87
Wind_Speed
57 57 58 59 60 60 61 62 62 62 61 60 57 56 53 54 56 42 46 47 47 53 53 50 37 38 36 36 36 35 48 58 56 51 49 32 38 36 40 42 44 45 54 64 74
56 58 58 58 59 60 61 62 62 63 61 59 57 56 55 55 49 45 42 49 47 49 46 48 45 40 37 37 39 40 50 51 47 46 47 36 38 37 42 45 50 53 56 69 77
56 56 58 58 59 60 61 62 63 62 60 58 54 54 55 50 48 42 47 49 44 42 40 39 38 38 38 39 40 41 50 41 43 42 42 40 41 40 48 54 53 60 72 78 84
55 56 58 59 58 59 60 61 61 61 60 58 56 54 56 44 53 41 53 46 42 41 39 40 38 40 41 41 38 45 40 41 44 42 42 49 41 46 45 52 46 59 69 76 85
54 56 57 58 58 58 59 60 62 62 59 56 53 53 49 51 47 47 52 45 40 38 43 40 42 42 42 45 44 46 44 42 47 43 43 41 48 51 51 41 50 61 68 77 85
52 56 56 57 58 58 60 62 62 60 58 53 51 48 51 55 39 46 47 41 44 40 42 39 38 38 39 47 50 52 53 52 48 47 40 45 49 48 45 39 54 62 71 81 89
51 55 54 54 55 57 60 62 60 60 55 49 45 45 51 49 37 44 42 40 41 38 38 38 38 40 46 54 49 54 59 57 51 42 40 41 49 49 41 41 55 66 76 85 93
48 52 53 53 54 57 60 62 62 60 46 41 39 45 51 38 36 43 42 41 39 36 35 35 41 44 50 50 53 54 53 50 40 32 34 38 56 45 34 44 59 70 81 92 99
47 51 51 51 53 57 61 64 65 50 38 36 44 46 47 36 39 41 46 45 43 39 36 36 40 44 46 50 53 46 55 44 45 33 34 36 55 46 31 46 63 74 86 96 104
54 56 50 48 53 55 62 65 49 41 37 36 39 52 39 45 42 43 43 44 41 40 40 38 36 40 41 46 58 46 46 44 47 38 36 46 58 47 40 44 61 76 89 98 102
70 64 52 48 47 50 56 52 51 50 42 52 54 49 46 39 37 42 43 42 39 41 46 38 35 39 44 38 38 44 42 47 49 41 48 53 53 54 48 40 60 83 95 98 100
70 70 54 39 38 42 45 50 49 48 60 46 44 39 35 39 38 38 46 40 41 47 41 40 36 35 33 32 35 38 47 50 40 38 52 57 62 55 37 41 59 81 93 95 96
69 65 47 25 28 39 45 45 37 41 53 45 37 31 31 37 35 40 44 39 41 42 40 42 39 31 32 35 39 34 37 42 48 57 47 55 43 40 37 47 62 83 84 86 91
67 56 31 24 41 38 45 37 37 38 47 38 29 28 33 36 34 42 42 39 37 43 40 41 35 34 36 38 33 43 34 45 55 53 50 45 47 40 41 61 79 89 91 88 88
62 44 23 29 35 42 35 32 34 34 49 29 27 31 34 37 44 39 37 37 39 39 38 40 39 38 39 34 35 40 44 49 46 45 44 36 42 41 49 75 90 90 87 84 80
54 41 35 34 33 29 26 32 33 33 43 31 31 37 42 41 40 39 40 36 37 39 39 38 36 36 34 35 35 45 44 43 39 33 37 33 46 41 61 72 82 85 83 82 71
49 47 41 37 32 24 29 31 35 35 35 35 35 39 45 48 39 37 43 46 43 46 45 38 39 35 36 39 36 41 43 43 36 35 40 34 42 46 58 59 72 78 76 74 63
48 44 43 40 32 29 35 38 42 39 47 43 42 42 50 41 39 40 45 48 39 38 44 46 48 38 36 35 38 39 36 36 39 43 47 36 42 46 55 54 65 65 63 65 59
46 44 41 43 40 36 35 41 43 50 47 47 50 55 48 43 43 42 46 44 39 33 40 44 41 32 33 34 35 32 34 34 38 36 42 38 39 38 55 64 70 67 67 72 44
45 43 43 44 40 38 36 44 48 49 50 51 61 48 56 44 44 47 46 37 38 34 31 34 43 34 28 32 33 32 27 35 38 42 44 42 44 52 75 76 71 64 67 37 44
44 46 45 43 34 39 45 46 51 48 48 48 51 53 47 46 47 47 43 39 34 33 31 28 32 33 29 28 34 31 32 34 37 37 44 50 44 49 62 61 60 54 57 26 29
43 48 42 40 39 38 39 42 43 46 44 45 45 43 45 43 50 44 40 36 31 28 35 25 32 34 33 28 32 29 32 31 37 40 38 41 42 44 51 52 51 48 50 25 26
42 43 41 37 42 39 42 43 43 44 42 38 40 36 45 52 51 40 38 35 29 30 29 26 30 36 31 29 28 30 29 29 32 35 34 43 47 39 47 53 50 47 45 41 34
38 47 43 38 37 40 45 46 43 39 41 39 46 49 54 56 43 46 32 32 28 30 30 28 27 26 35 30 28 27 28 24 28 33 36 33 43 48 51 53 49 47 27 38 24
36 44 39 42 41 36 39 43 46 47 39 41 45 54 52 52 50 40 28 31 32 26 30 30 34 37 45 36 29 32 27 19 18 26 31 39 37 46 46 48 43 41 6 21 24
39 39 40 43 39 40 37 41 43 44 43 48 51 53 51 58 55 45 27 27 35 23 23 26 33 36 44 36 37 47 19 13 16 19 14 16 28 33 40 43 43 42 5 23 16
34 34 40 40 42 39 42 45 42 49 46 50 57 54 56 55 42 39 29 31 32 29 13 23 22 31 39 35 42 44 26 23 22 24 30 36 39 36 41 44 43 42 19 24 18
Wind_Direction
354 352 353 353 350 349 350 349 349 349 349 347 349 350 351 350 345 352 343 341 340 332 330 332 339 335 333 327 323 317 300 295 297 296 300 307 301 310 313 309 309 311 309 311 313
356 353 354 354 353 351 349 349 349 348 349 349 349 350 349 348 347 344 351 344 342 338 337 333 331 333 327 324 319 310 300 301 303 302 302 306 306 310 310 308 307 308 311 314 316
353 351 351 352 351 351 351 349 349 350 350 350 350 350 348 350 343 346 349 344 346 347 344 340 336 332 325 323 318 313 304 310 305 308 310 307 308 310 307 304 306 308 309 315 316
347 348 347 349 350 349 350 349 351 351 351 350 350 349 345 349 337 350 343 346 348 348 344 338 334 327 321 317 320 311 316 314 308 309 310 304 313 310 307 308 316 314 315 318 318
342 344 343 346 346 347 348 349 349 350 351 352 352 352 351 341 338 346 343 348 349 347 343 337 331 326 318 315 318 313 314 315 310 316 311 311 306 306 307 313 315 318 320 321 322
336 340 340 341 343 343 344 345 347 349 349 351 355 356 346 337 352 348 346 349 346 345 341 340 332 329 322 314 312 313 312 309 311 310 314 309 307 309 315 316 316 321 323 324 325
330 334 336 338 340 340 341 343 344 346 348 351 355 356 343 339 355 353 353 349 347 347 341 341 336 325 320 312 316 314 311 307 302 310 314 316 310 308 316 321 321 323 326 327 328
326 329 330 331 334 336 338 339 340 341 347 354 359 352 340 352 356 351 352 348 349 348 341 339 332 322 314 316 312 312 313 311 313 319 322 321 309 317 324 324 325 327 328 329 330
321 323 324 325 328 330 333 334 337 346 353 359 351 349 343 358 353 351 348 342 341 344 339 336 328 319 317 310 310 312 305 313 315 322 325 317 312 320 331 329 326 329 331 331 332
319 318 319 320 323 326 329 331 342 349 354 358 355 342 348 344 347 346 350 350 347 343 338 332 330 319 315 308 303 312 314 315 314 325 321 314 311 320 327 332 331 333 334 335 337
319 316 312 313 318 326 332 335 333 332 338 329 330 334 337 350 355 353 356 355 359 352 338 341 331 320 312 319 320 313 316 313 315 324 318 314 319 320 332 337 336 335 337 340 341
322 318 313 311 317 329 335 327 330 333 326 334 333 336 349 349 357 6 359 1 0 350 356 352 338 332 332 331 326 322 313 313 326 327 318 316 313 325 342 347 345 342 342 344 345
325 326 327 326 331 328 326 327 341 339 324 329 335 343 357 355 2 4 358 358 354 349 353 350 353 350 338 328 321 329 327 320 313 310 325 323 337 350 1 358 351 348 351 351 351
325 330 334 333 323 328 325 334 339 340 324 328 336 347 349 358 360 358 3 1 359 346 353 349 6 359 336 326 335 319 334 317 303 315 326 338 336 352 358 354 350 350 352 355 357
334 340 354 336 334 324 338 348 346 338 317 342 337 343 347 354 351 358 6 5 353 349 349 345 347 353 337 338 335 318 318 310 320 332 335 349 347 355 358 350 349 354 357 360 3
356 1 355 350 350 358 2 348 335 322 311 329 332 329 335 349 356 353 351 5 2 350 348 341 354 354 357 338 335 310 316 328 341 352 345 1 355 1 356 355 357 359 2 5 8
356 352 346 343 341 357 2 350 327 313 329 321 322 331 336 340 349 358 349 340 341 336 332 342 337 341 345 327 331 311 325 332 343 352 348 10 2 1 5 8 5 4 7 10 323
358 355 352 346 338 335 322 323 304 310 307 316 320 327 331 345 345 349 340 335 348 341 332 327 320 331 332 327 319 326 340 343 337 341 344 10 4 10 13 16 11 13 15 18 325
354 352 350 339 333 327 322 305 306 298 309 309 313 313 323 331 336 341 329 334 344 351 334 329 333 350 343 335 328 335 342 351 342 357 356 9 17 21 17 13 13 16 19 21 327
354 352 344 336 335 327 321 309 307 306 310 309 300 308 312 325 327 323 323 342 344 351 359 355 326 340 349 335 336 333 8 349 354 349 356 7 9 9 3 6 14 20 23 18 324
349 344 345 344 342 321 312 310 307 309 310 305 303 302 303 314 309 315 320 336 345 357 4 4 357 344 345 333 321 331 338 353 360 1 358 359 13 20 13 17 20 28 29 327 326
343 336 346 349 337 329 323 318 319 313 314 310 310 299 297 305 304 314 324 330 354 5 348 13 354 335 331 338 325 328 333 353 352 358 13 14 17 29 27 27 30 35 38 314 322
337 337 347 346 333 329 323 321 321 317 316 313 306 306 291 284 292 314 325 330 350 349 3 18 352 319 329 334 317 328 342 354 7 12 23 16 15 35 32 31 36 41 47 324 323
336 326 335 337 337 328 320 321 321 325 317 315 299 288 281 275 302 300 333 339 347 334 353 3 349 344 304 328 331 347 353 13 12 18 22 33 23 25 28 32 40 47 48 325 323
331 323 330 329 330 332 327 320 318 312 317 312 298 270 274 277 285 308 334 334 332 348 338 341 325 297 269 310 327 319 350 36 57 30 35 25 34 27 38 41 49 57 259 311 327
317 323 323 321 328 327 327 319 312 312 311 301 284 279 281 265 271 299 338 334 319 346 350 342 324 308 261 302 300 265 7 72 86 66 127 88 55 65 54 53 57 63 172 313 314
314 320 316 317 322 321 320 315 312 311 304 293 284 282 277 275 289 297 323 324 322 324 27 357 4 331 289 298 278 254 261 108 47 66 45 41 44 68 58 57 62 69 79 313 306